FW7230 Weather Reports


Display with metric or nautical units.
time (UTC)temp
F
wind
direction
speed
MPH
gust
MPH
rain 1hr
in
rain 24hr
in
rain mn
in
humidity
%
barometer
mb
20260831174322 94 222 2.0 6.0 0.00 0.00 0.00 52 1014.2
20260831173339 93 213 3.0 6.0 0.00 0.00 0.00 55 1014.2
20260831172318 92 241 4.0 9.0 0.00 0.00 0.00 54 1014.5
20260831171323 91 221 4.0 9.0 0.00 0.00 0.00 56 1014.5
20260831170342 90 207 4.0 9.0 0.00 0.00 0.00 59 1014.5
20260831165323 89 238 6.0 10.0 0.00 0.00 0.00 58 1014.6
20260831164331 90 191 6.0 10.0 0.00 0.00 0.00 58 1014.6
20260831163329 89 197 6.0 10.0 0.00 0.00 0.00 61 1014.3
20260831162334 88 205 3.0 7.0 0.00 0.00 0.00 64 1014.0
20260831161335 88 224 4.0 6.0 0.00 0.00 0.00 62 1014.1
20260831160720 86 201 5.0 8.0 0.00 0.00 0.00 63 1013.5
20260831154333 85 190 2.0 6.0 0.00 0.00 0.00 67 1013.7
20260831153330 85 208 3.0 5.0 0.00 0.00 0.00 66 1013.9
20260831152337 84 231 3.0 5.0 0.00 0.00 0.00 64 1014.0
20260831151321 85 203 3.0 5.0 0.00 0.00 0.00 62 1014.0
20260831150340 86 226 4.0 11.0 0.00 0.00 0.00 62 1014.0
20260831145327 84 248 4.0 11.0 0.00 0.00 0.00 65 1013.8
20260831144319 83 201 6.0 10.0 0.00 0.00 0.00 65 1013.8
20260831143339 83 212 4.0 9.0 0.00 0.00 0.00 66 1013.8
20260831142320 83 215 4.0 7.0 0.00 0.00 0.00 65 1014.0
20260831141334 83 233 3.0 7.0 0.00 0.00 0.00 65 1014.1
20260831140330 82 208 3.0 6.0 0.00 0.00 0.00 67 1014.1
20260831135317 81 198 3.0 6.0 0.00 0.00 0.00 68 1014.1
20260831134323 80 224 3.0 6.0 0.00 0.00 0.00 68 1014.0
20260831133321 81 204 4.0 8.0 0.00 0.00 0.00 67 1013.8
20260831132327 80 221 3.0 6.0 0.00 0.00 0.00 70 1013.8
20260831131334 78 221 3.0 7.0 0.00 0.00 0.00 72 1013.7
20260831130721 78 237 1.0 3.0 0.00 0.00 0.00 72 1013.6
20260831125450 77 243 1.0 5.0 0.00 0.00 0.00 71 1013.7
20260831124721 77 235 1.0 4.0 0.00 0.00 0.00 71 1013.1
20260831122321 77 208 2.0 5.0 0.00 0.00 0.00 70 1012.9
20260831121334 77 205 3.0 6.0 0.00 0.00 0.00 70 1012.7
20260831120329 77 217 2.0 5.0 0.00 0.00 0.00 69 1012.6
20260831115336 78 231 3.0 8.0 0.00 0.00 0.00 68 1012.5
20260831114321 78 212 4.0 8.0 0.00 0.00 0.00 68 1012.6
20260831113319 78 209 4.0 9.0 0.00 0.00 0.00 68 1012.4
20260831112323 78 187 4.0 7.0 0.00 0.00 0.00 68 1012.4
20260831111329 78 212 3.0 7.0 0.00 0.00 0.00 68 1012.4
20260831110328 78 210 2.0 7.0 0.00 0.00 0.00 68 1012.4
20260831105332 78 255 3.0 7.0 0.00 0.00 0.00 67 1012.4
20260831104319 78 229 4.0 7.0 0.00 0.00 0.00 67 1012.1
20260831103339 78 212 5.0 10.0 0.00 0.00 0.00 67 1012.0
20260831102320 78 227 4.0 7.0 0.00 0.00 0.00 67 1012.0
20260831101323 78 207 3.0 9.0 0.00 0.00 0.00 68 1011.9
20260831100321 78 190 5.0 8.0 0.00 0.00 0.00 68 1011.8
20260831095327 78 205 3.0 8.0 0.00 0.00 0.00 68 1011.8
20260831094321 78 195 3.0 7.0 0.00 0.00 0.00 68 1011.9
20260831093341 78 187 3.0 6.0 0.00 0.00 0.00 68 1011.8
20260831092327 78 228 4.0 8.0 0.00 0.00 0.00 67 1011.9
20260831091323 78 195 3.0 8.0 0.00 0.00 0.00 67 1011.8
20260831090341 78 205 4.0 7.0 0.00 0.00 0.00 67 1011.8
20260831085322 78 191 3.0 7.0 0.00 0.00 0.00 67 1011.7
20260831084326 79 202 2.0 7.0 0.00 0.00 0.00 67 1011.7
20260831083324 79 232 3.0 5.0 0.00 0.00 0.00 66 1011.7
20260831082331 79 207 3.0 6.0 0.00 0.00 0.00 66 1011.7
20260831081318 79 210 3.0 6.0 0.00 0.00 0.00 66 1011.8
20260831080338 79 218 3.0 5.0 0.00 0.00 0.00 66 1011.8
20260831075321 79 203 3.0 7.0 0.00 0.00 0.00 66 1011.9
20260831074325 80 225 3.0 5.0 0.00 0.00 0.00 65 1012.0
20260831073342 80 225 3.0 6.0 0.00 0.00 0.00 65 1012.0
20260831072322 80 210 3.0 8.0 0.00 0.00 0.00 65 1011.9
20260831071320 80 226 4.0 9.0 0.00 0.00 0.00 65 1011.8
20260831070319 80 220 5.0 8.0 0.00 0.00 0.00 65 1011.8
20260831065453 80 211 4.0 8.0 0.00 0.00 0.00 66 1011.7
20260831064318 79 215 4.0 8.0 0.00 0.00 0.00 67 1011.7
20260831063317 79 211 2.0 6.0 0.00 0.00 0.00 68 1011.6
20260831062343 78 207 2.0 8.0 0.00 0.00 0.00 69 1011.6
20260831061327 79 204 1.0 6.0 0.00 0.00 0.00 69 1011.6
20260831060326 79 183 2.0 5.0 0.00 0.00 0.00 69 1011.5
20260831055332 79 190 2.0 5.0 0.00 0.00 0.00 69 1011.5
20260831054341 79 191 2.0 6.0 0.00 0.00 0.00 68 1011.4
20260831054222 80 198 2.0 6.0 0.00 0.00 0.00 68 1011.3
20260831051321 80 203 2.0 6.0 0.00 0.00 0.00 67 1011.2
20260831050338 80 153 2.0 6.0 0.00 0.00 0.00 67 1011.2
20260831045355 81 200 1.0 6.0 0.00 0.00 0.00 67 1011.2
20260831044323 81 197 2.0 5.0 0.00 0.00 0.00 66 1011.1
20260831043341 81 211 3.0 7.0 0.00 0.00 0.00 65 1011.2
20260831042321 82 208 3.0 7.0 0.00 0.00 0.00 65 1011.2
20260831041351 82 200 2.0 6.0 0.00 0.00 0.00 65 1011.3
20260831040328 82 204 4.0 7.0 0.00 0.00 0.00 64 1011.3
20260831035315 83 176 4.0 8.0 0.00 0.00 0.00 64 1011.2
20260831034322 83 198 3.0 8.0 0.00 0.00 0.00 64 1011.2
20260831033341 83 132 5.0 8.0 0.00 0.00 0.00 64 1011.1
20260831032322 83 170 4.0 8.0 0.00 0.00 0.00 65 1011.0
20260831031329 84 150 4.0 10.0 0.00 0.00 0.00 65 1010.9
20260831030337 84 194 2.0 6.0 0.00 0.00 0.00 65 1010.9
20260831025321 84 202 3.0 9.0 0.00 0.00 0.00 64 1010.8
20260831024322 84 141 3.0 8.0 0.00 0.00 0.00 64 1010.9
20260831023340 84 195 4.0 8.0 0.00 0.00 0.00 65 1010.8
20260831022324 85 159 3.0 7.0 0.00 0.00 0.00 65 1010.7
20260831021330 85 129 3.0 7.0 0.00 0.00 0.00 65 1010.6
20260831020350 85 167 2.0 6.0 0.00 0.00 0.00 65 1010.7
20260831015316 86 91 2.0 9.0 0.00 0.00 0.00 65 1010.5
20260831014322 86 121 2.0 6.0 0.00 0.00 0.00 64 1010.4
20260831013339 87 72 2.0 5.0 0.00 0.00 0.00 64 1010.3
20260831012322 87 151 2.0 5.0 0.00 0.00 0.00 64 1010.3
20260831011326 88 124 3.0 7.0 0.00 0.00 0.00 63 1010.2
20260831010324 88 117 3.0 6.0 0.00 0.00 0.00 62 1010.2
20260831005325 89 120 3.0 7.0 0.00 0.00 0.00 62 1010.1
20260831004334 89 129 2.0 7.0 0.00 0.00 0.00 60 1010.1
20260831003954 90 143 2.0 7.0 0.00 0.00 0.00 59 1010.1
20260831002328 90 165 2.0 6.0 0.00 0.00 0.00 59 1010.1
20260831001320 91 152 2.0 8.0 0.00 0.00 0.00 58 1010.1
20260831000340 93 194 2.0 4.0 0.00 0.00 0.00 55 1010.1
20260830235326 95 190 3.0 7.0 0.00 0.00 0.00 52 1010.2
20260830234331 96 189 3.0 7.0 0.00 0.00 0.00 52 1010.2
20260830233455 95 201 3.0 8.0 0.00 0.00 0.00 53 1010.2
20260830231328 96 197 3.0 9.0 0.00 0.00 0.00 51 1010.3
20260830230454 97 194 4.0 9.0 0.00 0.00 0.00 51 1010.1
20260830225725 96 163 3.0 12.0 0.00 0.00 0.00 53 1010.0
20260830223455 95 131 3.0 7.0 0.00 0.00 0.00 54 1010.1
20260830222317 95 189 4.0 10.0 0.00 0.00 0.00 54 1010.2
20260830221322 95 196 6.0 14.0 0.00 0.00 0.00 52 1010.2
20260830220318 96 153 4.0 9.0 0.00 0.00 0.00 52 1010.3
20260830215325 97 121 5.0 11.0 0.00 0.00 0.00 51 1010.4
20260830214331 98 159 7.0 12.0 0.00 0.00 0.00 51 1010.4
20260830213328 97 183 6.0 16.0 0.00 0.00 0.00 50 1010.5
20260830212724 97 215 7.0 10.0 0.00 0.00 0.00 51 1010.5
20260830211320 96 218 4.0 13.0 0.00 0.00 0.00 52 1010.6
20260830210319 97 174 7.0 16.0 0.00 0.00 0.00 50 1010.5
20260830205345 97 221 7.0 12.0 0.00 0.00 0.00 49 1010.6
20260830204327 97 194 6.0 12.0 0.00 0.00 0.00 49 1010.6
20260830203326 97 208 9.0 16.0 0.00 0.00 0.00 49 1010.7
20260830202334 97 190 6.0 12.0 0.00 0.00 0.00 51 1010.7
20260830201321 96 172 5.0 12.0 0.00 0.00 0.00 51 1010.7
20260830200341 96 226 6.0 14.0 0.00 0.00 0.00 51 1010.7
20260830195321 96 188 7.0 14.0 0.00 0.00 0.00 52 1010.9
20260830194325 96 155 9.0 13.0 0.00 0.00 0.00 50 1011.0
20260830193322 95 162 6.0 13.0 0.00 0.00 0.00 51 1011.2
20260830192455 94 201 7.0 12.0 0.00 0.00 0.00 53 1011.3
20260830190455 94 194 6.0 13.0 0.00 0.00 0.00 53 1011.4
20260830185336 93 238 7.0 13.0 0.00 0.00 0.00 55 1011.5
20260830184321 91 205 7.0 13.0 0.00 0.00 0.00 57 1011.6
20260830183339 91 221 5.0 11.0 0.00 0.00 0.00 55 1011.7
20260830182320 93 205 8.0 13.0 0.00 0.00 0.00 52 1011.7
20260830181343 94 235 7.0 12.0 0.00 0.00 0.00 51 1011.7
20260830180339 94 215 6.0 14.0 0.00 0.00 0.00 52 1011.8
20260830175319 94 169 6.0 11.0 0.00 0.00 0.00 54 1011.8